Total_Precipitation_Accumulation
0.35 0.04 0.04 0.09 0.51 0.56 1.85 1.72 3.68 2.09 2.25 2.30 2.32 2.00 2.92 1.04 1.19 1.81 1.21 0.82 1.07 0.59 1.04 0.48 0.16 0.38 1.34 0.65 0.32 0.40 0.23 1.28 0.25 2.16 1.37 0.88 0.65 0.65 0.60 0.73 0.71 0.68 0.48 0.46 0.73 0.96 1.26 0.68 1.09 1.08 1.16 0.83 0.77 0.94 0.70 0.67 0.81 0.70 0.75 0.51 0.32 0.28 0.29 0.12 0.08 0.09 0.07 0.10 0.12 0.06 0.10 0.13 0.19 0.21 0.20 0.13 0.21 0.19 0.37 0.28 0.34 0.36 0.43 0.42 0.62 0.55 0.46 0.49 0.61 0.50 0.39 0.32 0.36 0.37 0.35 0.20 0.22
0.08 0.02 0.07 0.26 0.70 2.35 2.27 0.95 3.18 2.50 1.88 2.62 2.14 1.67 1.84 1.53 1.93 1.46 1.14 2.58 0.75 0.53 0.23 0.34 0.21 1.03 0.73 0.07 0.10 0.12 0.14 0.20 0.10 0.20 0.33 0.46 0.62 0.67 0.42 0.50 0.34 0.47 0.35 0.34 0.34 0.73 0.66 0.85 0.82 0.91 0.76 0.65 0.57 0.57 0.65 0.85 0.57 0.66 0.44 0.27 0.29 0.23 0.13 0.08 0.08 0.12 0.09 0.13 0.19 0.20 0.14 0.17 0.25 0.24 0.15 0.18 0.24 0.33 0.50 0.36 0.26 0.35 0.40 0.39 0.44 0.44 0.47 0.44 0.51 0.44 0.35 0.34 0.52 0.58 0.39 0.33 0.35
0.05 0.09 0.20 0.55 0.46 1.34 1.97 1.82 3.11 2.95 2.72 2.45 1.70 2.10 1.55 1.49 1.96 1.75 1.55 0.89 0.42 0.16 0.24 0.23 0.22 0.75 0.43 0.17 0.19 0.29 0.38 0.24 0.08 0.10 0.54 0.59 0.76 0.97 0.44 0.26 0.36 0.29 0.35 0.34 0.34 0.48 0.53 0.65 0.41 0.78 0.73 0.72 0.43 0.48 0.58 0.49 0.35 0.36 0.47 0.22 0.32 0.16 0.15 0.13 0.14 0.16 0.14 0.23 0.22 0.12 0.13 0.18 0.25 0.30 0.24 0.27 0.30 0.36 0.54 0.55 0.77 0.55 0.39 0.47 0.51 0.40 0.31 0.39 0.34 0.35 0.27 0.41 0.60 0.50 0.35 0.29 0.31
0.13 0.20 0.61 0.57 3.00 1.35 2.27 3.02 2.13 3.64 3.45 1.52 1.87 1.36 2.04 1.58 1.42 1.41 0.73 0.54 0.44 0.12 0.18 0.22 0.64 0.15 0.46 0.11 0.15 0.07 0.13 0.37 0.17 0.07 0.76 0.69 0.35 0.43 0.36 0.38 0.22 0.22 0.29 0.34 0.43 0.41 0.49 0.46 0.27 0.36 0.56 0.46 0.33 0.42 0.34 0.36 0.30 0.21 0.28 0.22 0.20 0.22 0.11 0.14 0.10 0.18 0.20 0.18 0.12 0.18 0.22 0.25 0.14 0.32 0.34 0.44 0.40 0.51 0.58 0.36 0.69 0.65 0.55 0.52 0.57 0.39 0.35 0.49 0.47 0.45 0.43 0.50 0.54 0.45 0.37 0.30 0.33
0.21 0.55 0.38 0.91 2.89 3.81 2.80 3.24 2.83 3.31 2.64 1.52 2.41 1.50 0.99 0.94 1.01 0.53 0.61 0.58 0.21 0.69 0.12 0.33 0.23 0.39 0.67 0.28 0.19 0.53 0.23 0.15 0.15 0.08 0.19 0.27 0.12 0.21 0.22 0.24 0.29 0.26 0.26 0.28 0.30 0.34 0.34 0.25 0.26 0.27 0.36 0.32 0.23 0.25 0.24 0.26 0.17 0.17 0.26 0.20 0.20 0.16 0.19 0.22 0.19 0.22 0.19 0.23 0.23 0.26 0.19 0.26 0.26 0.33 0.35 0.43 0.48 0.43 0.58 0.77 0.80 0.65 0.55 0.55 0.55 0.48 0.33 0.40 0.47 0.44 0.40 0.66 0.68 0.47 0.39 0.27 0.35
0.22 0.31 0.51 1.47 5.07 3.73 2.33 2.29 3.04 2.43 2.47 1.08 1.48 1.62 1.43 1.26 1.32 0.57 0.37 0.45 0.71 0.55 0.36 0.52 0.19 0.24 0.16 0.04 0.06 0.10 0.07 0.38 0.18 0.12 0.21 0.26 0.18 0.23 0.21 0.22 0.28 0.28 0.28 0.47 0.37 0.30 0.50 0.16 0.30 0.28 0.20 0.26 0.16 0.15 0.15 0.17 0.14 0.25 0.19 0.20 0.12 0.19 0.23 0.37 0.22 0.30 0.29 0.35 0.17 0.29 0.37 0.37 0.30 0.53 0.43 0.42 0.45 0.43 0.62 0.67 0.63 0.55 0.38 0.46 0.61 0.44 0.44 0.43 0.61 0.48 0.43 0.64 0.50 0.47 0.38 0.31 0.33
0.41 0.71 1.43 1.88 1.95 2.34 3.47 2.61 1.99 1.82 1.76 1.34 1.02 1.56 1.55 0.87 0.62 0.49 0.41 0.48 0.71 0.53 0.32 0.46 0.03 0.05 0.29 0.11 0.06 0.07 0.05 0.04 0.15 0.11 0.04 0.13 0.17 0.14 0.15 0.24 0.28 0.33 0.35 0.35 0.32 0.26 0.36 0.14 0.22 0.23 0.26 0.20 0.18 0.17 0.22 0.19 0.12 0.15 0.16 0.20 0.16 0.25 0.27 0.35 0.35 0.36 0.32 0.24 0.34 0.44 0.54 0.36 0.70 0.53 0.56 0.64 0.32 0.62 0.50 0.43 0.39 0.54 0.52 0.50 0.61 0.49 0.33 0.33 0.38 0.47 0.36 0.47 0.51 0.31 0.35 0.41 0.41
0.10 2.32 2.46 2.24 3.31 2.81 2.32 1.97 1.93 1.56 1.47 2.13 2.18 1.36 1.69 1.01 0.47 0.83 0.23 0.32 0.46 0.50 0.22 0.09 0.16 0.18 0.21 0.03 0.43 0.24 0.06 0.03 0.04 0.01 0.04 0.06 0.10 0.18 0.19 0.20 0.34 0.31 0.33 0.25 0.28 0.32 0.29 0.19 0.19 0.23 0.24 0.17 0.17 0.17 0.28 0.14 0.15 0.18 0.19 0.20 0.44 0.40 0.47 0.46 0.31 0.31 0.46 0.37 0.36 0.42 0.41 0.51 0.52 0.55 0.80 0.55 0.51 0.55 0.46 0.59 0.51 0.52 0.31 0.32 0.48 0.44 0.38 0.32 0.20 0.41 0.42 0.54 0.35 0.38 0.44 0.56 0.26
0.33 1.30 2.53 1.76 3.07 3.13 2.27 2.77 2.25 2.12 2.03 1.67 2.25 1.31 0.97 1.18 0.46 0.67 0.48 0.22 0.25 0.15 0.08 0.12 0.09 0.27 0.47 0.20 0.35 0.27 0.14 0.06 0.01 0.02 0.02 0.06 0.15 0.17 0.14 0.18 0.22 0.32 0.26 0.21 0.23 0.29 0.44 0.12 0.16 0.13 0.16 0.15 0.20 0.22 0.26 0.16 0.20 0.20 0.25 0.27 0.39 0.35 0.42 0.43 0.40 0.40 0.56 0.52 0.51 0.58 0.62 0.54 0.44 0.54 0.69 0.58 0.53 0.50 0.56 0.60 0.56 0.56 0.38 0.40 0.40 0.50 0.30 0.27 0.19 0.18 0.28 0.39 0.28 0.32 0.31 0.38 0.20
1.56 1.15 4.48 2.79 2.62 3.11 2.30 1.49 2.22 2.24 2.17 1.72 2.08 1.50 1.46 0.84 0.57 1.34 0.46 0.14 0.47 0.11 0.17 0.09 0.06 0.45 0.16 0.29 0.22 0.22 0.18 0.03 0.01 0.03 0.07 0.05 0.06 0.09 0.11 0.15 0.13 0.13 0.20 0.23 0.19 0.30 0.25 0.30 0.14 0.13 0.18 0.17 0.25 0.22 0.21 0.29 0.24 0.24 0.39 0.30 0.32 0.46 0.41 0.42 0.48 0.59 0.49 0.45 0.52 0.48 0.57 0.60 0.46 0.46 0.42 0.45 0.51 0.52 0.65 0.57 0.56 0.42 0.34 0.28 0.38 0.28 0.27 0.19 0.20 0.12 0.20 0.20 0.22 0.36 0.35 0.21 0.25
2.11 1.38 1.42 3.36 2.74 2.44 2.36 1.42 1.17 2.08 2.08 1.69 1.44 1.20 0.79 1.02 0.91 0.64 0.61 0.36 0.04 0.12 0.09 0.07 0.18 0.12 0.09 0.30 0.36 0.20 0.06 0.02 0.02 0.08 0.07 0.04 0.05 0.10 0.12 0.19 0.12 0.10 0.17 0.27 0.14 0.30 0.36 0.34 0.21 0.16 0.18 0.22 0.24 0.28 0.40 0.55 0.35 0.34 0.31 0.28 0.32 0.38 0.43 0.51 0.66 0.69 0.52 0.47 0.54 0.64 0.67 0.59 0.50 0.55 0.47 0.41 0.38 0.50 0.65 0.71 0.69 0.71 0.60 0.47 0.25 0.22 0.14 0.14 0.16 0.20 0.24 0.31 0.36 0.40 0.34 0.24 0.26
2.16 1.59 2.98 3.10 2.53 2.94 2.27 2.21 1.44 1.76 1.68 1.68 1.76 1.90 0.95 0.89 0.58 0.64 0.69 0.16 0.11 0.03 0.08 0.08 0.22 0.07 0.12 0.16 0.41 0.43 0.09 0.04 0.05 0.03 0.07 0.05 0.08 0.08 0.12 0.10 0.11 0.16 0.13 0.23 0.19 0.19 0.25 0.32 0.50 0.44 0.13 0.14 0.25 0.34 0.44 0.37 0.41 0.49 0.33 0.47 0.59 0.49 0.70 0.67 0.70 0.61 0.54 0.62 0.63 0.70 0.93 0.73 0.52 0.54 0.58 0.60 0.53 0.63 0.81 0.63 0.62 0.77 0.94 0.50 0.25 0.23 0.22 0.26 0.27 0.20 0.24 0.42 0.31 0.22 0.26 0.23 0.31
1.65 2.05 3.26 2.85 2.39 2.89 2.00 1.41 2.73 1.68 1.45 1.95 1.35 1.27 1.31 1.07 1.43 0.49 0.81 0.24 0.09 0.04 0.05 0.23 0.02 0.03 0.07 0.15 0.37 0.20 0.15 0.07 0.03 0.02 0.04 0.04 0.04 0.09 0.07 0.09 0.10 0.08 0.12 0.10 0.21 0.24 0.25 0.21 0.34 0.44 0.30 0.17 0.43 0.44 0.48 0.51 0.60 0.68 0.33 0.55 0.58 0.63 0.63 0.69 0.81 0.59 0.43 0.52 0.55 0.96 0.63 0.86 0.73 0.52 0.69 0.71 0.77 0.83 0.68 0.54 0.83 0.89 0.72 0.77 0.33 0.22 0.26 0.30 0.35 0.29 0.23 0.28 0.27 0.25 0.21 0.22 0.24
1.44 1.99 2.77 3.06 1.76 2.54 2.35 1.53 1.61 1.45 2.39 1.04 2.36 1.45 1.35 1.02 0.68 0.41 0.44 0.23 0.09 0.17 0.04 0.09 0.03 0.04 0.25 0.06 0.82 0.32 0.13 0.07 0.02 0.03 0.03 0.05 0.05 0.06 0.05 0.07 0.10 0.10 0.13 0.16 0.17 0.16 0.27 0.24 0.32 0.33 0.46 0.65 0.73 0.64 0.62 0.65 0.60 0.68 0.42 0.50 0.73 0.82 0.73 0.73 0.36 0.47 0.50 0.54 0.72 0.65 0.82 0.58 0.69 0.91 0.76 0.95 0.91 0.65 0.71 0.56 0.69 0.90 0.64 0.96 0.45 0.31 0.29 0.30 0.28 0.32 0.19 0.18 0.30 0.33 0.35 0.28 0.33
1.18 1.34 2.82 1.89 2.11 1.55 1.32 1.78 1.47 1.10 2.07 1.14 1.67 1.69 0.98 0.86 0.97 0.74 0.65 0.43 0.39 0.12 0.03 0.02 0.04 0.06 0.19 0.04 0.20 0.09 0.07 0.06 0.03 0.02 0.04 0.05 0.05 0.05 0.05 0.10 0.10 0.12 0.13 0.19 0.16 0.26 0.27 0.17 0.34 0.37 0.37 0.48 0.50 0.58 0.65 0.77 0.73 0.60 0.59 0.57 0.77 0.68 0.71 0.60 0.42 0.34 0.34 0.38 0.44 0.74 0.63 0.74 0.84 0.95 0.79 0.76 0.79 0.72 0.42 0.58 0.65 0.49 0.67 0.74 0.74 0.49 0.39 0.33 0.36 0.47 0.32 0.25 0.32 0.30 0.37 0.34 0.25
1.06 1.23 2.40 1.61 2.27 1.36 0.82 1.36 0.66 1.20 1.08 1.27 1.18 1.19 1.09 0.64 0.65 1.02 0.61 0.95 0.59 0.02 0.01 0.13 0.01 0.14 0.07 0.03 0.01 0.01 0.01 0.02 0.03 0.03 0.05 0.08 0.08 0.08 0.09 0.11 0.19 0.23 0.16 0.21 0.23 0.22 0.22 0.16 0.26 0.29 0.41 0.36 0.64 0.62 0.75 0.79 0.45 0.37 0.27 0.50 0.64 0.82 0.50 0.38 0.29 0.29 0.28 0.27 0.42 0.61 0.57 0.83 0.94 0.91 0.98 1.01 1.08 0.72 0.64 0.76 0.73 0.51 0.64 0.60 0.66 0.53 0.51 0.51 0.50 0.41 0.36 0.30 0.39 0.28 0.21 0.29 0.26
1.05 1.05 2.04 2.00 2.39 1.56 0.61 0.88 0.92 1.92 0.78 0.97 1.08 0.95 0.52 0.65 0.64 0.85 0.64 0.55 0.25 0.12 0.05 0.00 0.10 0.01 0.00 0.01 0.01 0.00 0.01 0.01 0.02 0.03 0.05 0.14 0.14 0.25 0.30 0.27 0.27 0.33 0.34 0.31 0.24 0.22 0.26 0.18 0.19 0.25 0.26 0.30 0.26 0.35 0.50 0.66 0.41 0.46 0.33 0.47 0.70 0.42 0.48 0.24 0.17 0.26 0.34 0.31 0.59 0.73 0.54 0.48 0.64 0.64 0.58 0.70 0.50 0.61 0.61 0.57 0.49 0.59 0.69 0.61 0.61 0.53 0.64 0.55 0.41 0.80 0.48 0.47 0.54 0.44 0.30 0.26 0.25
0.66 1.09 1.37 1.81 2.18 1.99 0.96 1.38 0.95 0.33 1.25 0.53 0.99 1.13 0.93 0.58 0.38 0.56 0.31 0.56 0.63 0.38 0.08 0.04 0.01 0.00 0.00 0.00 0.00 0.00 0.01 0.02 0.04 0.04 0.08 0.12 0.12 0.19 0.25 0.27 0.22 0.30 0.26 0.37 0.34 0.23 0.20 0.20 0.22 0.21 0.32 0.27 0.27 0.39 0.49 0.40 0.48 0.49 0.43 0.42 0.51 0.42 0.42 0.50 0.30 0.31 0.52 0.44 0.46 0.43 0.50 0.67 0.77 0.72 0.72 0.59 0.82 0.59 0.58 0.63 0.50 0.28 0.47 0.62 0.59 0.61 0.46 0.53 0.69 0.60 0.63 0.48 0.54 0.47 0.23 0.27 0.39
1.55 0.55 1.30 2.64 1.73 1.26 0.87 0.98 0.76 1.10 0.98 0.74 1.20 0.76 0.90 0.43 1.08 0.43 0.53 0.27 0.59 0.38 0.24 0.02 0.01 0.00 0.00 0.00 0.00 0.01 0.03 0.03 0.02 0.02 0.04 0.03 0.05 0.05 0.09 0.14 0.13 0.19 0.24 0.26 0.37 0.24 0.16 0.17 0.14 0.18 0.17 0.29 0.28 0.33 0.37 0.29 0.36 0.31 0.36 0.34 0.39 0.54 0.41 0.31 0.27 0.42 0.43 0.57 0.55 0.66 0.96 0.81 0.43 0.55 0.78 0.68 0.49 0.34 0.41 0.35 0.65 0.48 0.52 0.50 0.60 0.81 0.72 0.66 0.92 0.79 0.97 0.56 0.31 0.25 0.30 0.23 0.44
0.64 1.36 1.45 1.70 1.63 1.41 0.80 0.51 0.77 1.14 0.30 0.72 0.71 0.44 0.92 0.76 0.35 0.12 0.83 0.38 0.24 0.26 0.04 0.04 0.01 0.01 0.01 0.01 0.00 0.03 0.03 0.02 0.01 0.01 0.01 0.02 0.02 0.04 0.07 0.08 0.10 0.06 0.10 0.12 0.17 0.21 0.17 0.14 0.12 0.10 0.15 0.20 0.16 0.30 0.27 0.43 0.34 0.69 0.29 0.23 0.43 0.24 0.24 0.30 0.43 0.58 0.50 0.70 0.73 0.73 0.56 0.81 0.55 0.59 0.39 0.45 0.25 0.22 0.35 0.26 0.52 0.63 0.66 0.58 0.41 0.50 0.41 0.39 0.58 0.51 0.80 0.57 0.53 0.52 0.57 0.65 0.56
0.54 0.65 1.00 1.41 0.96 1.20 0.87 0.82 0.61 0.98 0.74 0.56 0.52 0.48 0.55 0.63 0.57 0.94 0.48 0.18 0.39 0.08 0.06 0.03 0.01 0.01 0.01 0.00 0.00 0.01 0.02 0.02 0.04 0.01 0.01 0.02 0.02 0.01 0.05 0.03 0.08 0.05 0.05 0.09 0.15 0.13 0.14 0.18 0.22 0.21 0.16 0.17 0.26 0.30 0.36 0.37 0.37 0.27 0.26 0.26 0.57 0.33 0.25 0.18 0.34 0.37 0.44 0.50 0.62 0.55 0.62 0.51 0.39 0.37 0.49 0.54 0.59 0.41 0.42 0.55 0.45 0.60 0.71 0.85 0.46 0.66 0.57 0.53 0.51 0.66 1.45 1.22 0.71 0.67 0.55 0.50 0.63
0.15 0.70 0.57 0.84 0.78 0.89 1.23 1.31 0.79 0.70 0.94 0.43 0.40 0.44 0.58 0.12 0.39 0.89 0.98 0.93 0.40 0.12 0.04 0.01 0.00 0.00 0.00 0.00 0.00 0.00 0.01 0.01 0.01 0.02 0.00 0.00 0.01 0.01 0.04 0.02 0.04 0.03 0.05 0.10 0.10 0.11 0.12 0.14 0.14 0.17 0.15 0.20 0.20 0.17 0.25 0.16 0.17 0.28 0.29 0.20 0.23 0.23 0.33 0.20 0.33 0.35 0.44 0.86 0.99 0.38 0.38 0.70 0.65 0.79 0.32 0.29 0.26 0.30 0.30 0.70 0.58 0.49 0.41 0.47 0.46 0.60 0.35 0.33 0.44 0.36 0.78 0.80 1.07 0.68 0.52 0.60 0.48
0.72 0.32 0.22 0.91 0.45 1.02 0.88 1.20 1.04 1.27 0.82 1.03 0.38 1.03 0.72 0.34 0.30 0.21 0.76 1.42 0.69 0.13 0.02 0.00 0.00 0.00 0.00 0.00 0.00 0.01 0.01 0.00 0.00 0.00 0.01 0.01 0.01 0.01 0.01 0.04 0.05 0.03 0.02 0.04 0.05 0.11 0.12 0.17 0.12 0.12 0.17 0.15 0.15 0.16 0.12 0.22 0.36 0.14 0.16 0.35 0.30 0.40 0.22 0.28 0.39 0.73 0.80 0.61 0.59 0.64 0.74 0.87 0.74 0.41 0.43 0.42 0.44 0.59 0.56 0.50 0.38 0.42 0.36 0.42 0.33 0.32 0.28 0.49 0.49 0.63 0.52 0.89 0.68 0.52 0.73 0.83 0.60
0.31 0.24 0.11 0.59 0.55 0.69 0.79 0.64 1.08 1.50 1.09 0.81 0.91 0.74 0.70 0.24 0.67 0.55 1.03 0.35 0.26 0.30 0.03 0.01 0.00 0.00 0.00 0.00 0.00 0.00 0.00 0.00 0.00 0.01 0.00 0.01 0.00 0.00 0.00 0.03 0.01 0.01 0.01 0.02 0.04 0.07 0.09 0.13 0.09 0.10 0.13 0.14 0.14 0.13 0.14 0.17 0.22 0.22 0.16 0.48 0.43 0.22 0.44 0.24 0.51 0.67 0.64 0.89 0.77 0.81 0.79 0.82 0.72 0.62 0.36 0.39 0.56 0.46 0.34 0.57 0.52 0.50 0.47 0.54 0.38 0.28 0.38 0.36 0.43 0.59 0.36 0.91 0.73 0.58 0.36 0.69 0.77
0.24 0.22 0.19 0.12 0.83 0.64 0.63 0.60 0.78 0.86 0.99 0.92 0.64 0.71 0.97 0.86 0.84 0.35 0.52 0.12 0.21 0.16 0.06 0.01 0.00 0.00 0.00 0.00 0.00 0.00 0.00 0.01 0.01 0.00 0.00 0.00 0.01 0.00 0.02 0.01 0.00 0.01 0.01 0.02 0.02 0.04 0.05 0.06 0.13 0.09 0.10 0.09 0.09 0.11 0.11 0.10 0.12 0.24 0.14 0.23 0.31 0.54 0.48 0.57 0.59 0.60 0.61 0.75 0.69 1.17 0.46 0.68 0.46 0.67 0.45 0.24 0.55 1.36 1.41 0.86 0.74 0.57 0.18 0.30 0.48 0.77 0.53 0.51 0.75 0.72 0.81 0.93 0.95 0.66 0.63 0.43 0.20
0.02 0.21 0.10 0.05 0.40 0.64 0.73 0.76 1.29 1.29 0.71 0.87 0.94 0.95 1.16 1.34 0.65 0.81 0.18 0.19 0.12 0.15 0.01 0.01 0.00 0.00 0.00 0.00 0.00 0.00 0.00 0.00 0.00 0.00 0.01 0.00 0.00 0.01 0.01 0.00 0.00 0.00 0.00 0.01 0.01 0.03 0.05 0.05 0.05 0.08 0.06 0.08 0.07 0.09 0.07 0.09 0.07 0.09 0.09 0.09 0.20 0.36 0.49 0.49 0.63 0.66 0.57 0.39 0.76 0.80 0.60 0.68 0.50 0.78 0.30 0.72 0.58 0.97 0.92 0.43 0.40 0.27 0.19 0.31 0.22 0.61 0.38 0.49 0.80 0.70 1.10 0.87 0.66 0.51 0.43 0.42 0.51
0.00 0.29 0.10 0.03 0.16 0.51 0.88 0.65 0.71 1.17 1.02 1.33 0.71 0.42 0.61 0.48 0.33 0.95 0.13 0.04 0.04 0.22 0.07 0.02 0.00 0.00 0.00 0.00 0.00 0.00 0.00 0.00 0.00 0.00 0.00 0.00 0.00 0.00 0.00 0.00 0.00 0.00 0.00 0.01 0.02 0.06 0.06 0.04 0.06 0.05 0.05 0.05 0.05 0.08 0.04 0.06 0.05 0.08 0.08 0.16 0.22 0.46 0.49 0.46 0.54 0.40 0.34 0.38 0.65 0.64 0.69 0.86 0.65 0.41 0.32 0.56 0.96 1.06 0.57 0.32 0.51 0.39 0.23 0.34 0.42 0.32 0.24 0.42 0.66 0.41 0.38 0.38 0.54 0.50 0.38 0.16 0.27
0.03 0.12 0.02 0.07 0.74 0.67 0.69 0.78 0.83 1.41 2.23 1.45 1.78 1.47 0.68 0.43 0.35 0.52 0.07 0.05 0.04 0.08 0.04 0.02 0.00 0.00 0.00 0.00 0.00 0.00 0.00 0.00 0.00 0.00 0.00 0.00 0.00 0.01 0.00 0.01 0.00 0.00 0.00 0.00 0.02 0.01 0.02 0.03 0.07 0.04 0.06 0.05 0.04 0.04 0.04 0.04 0.04 0.06 0.08 0.08 0.12 0.25 0.36 0.35 0.60 0.22 0.16 0.31 0.45 0.41 0.33 0.39 0.76 0.58 0.37 0.80 0.87 0.60 0.49 0.48 0.34 0.28 0.21 0.24 0.29 0.30 0.30 0.14 0.36 0.31 0.32 0.60 0.68 0.42 0.47 0.52 0.38
0.02 0.01 0.08 0.22 0.82 0.99 0.81 1.09 1.13 1.31 1.99 1.35 1.76 1.61 1.01 0.41 1.28 0.37 0.14 0.15 0.07 0.04 0.01 0.00 0.00 0.00 0.00 0.00 0.00 0.00 0.00 0.00 0.00 0.00 0.00 0.00 0.00 0.00 0.00 0.00 0.01 0.00 0.00 0.03 0.00 0.01 0.02 0.01 0.02 0.02 0.03 0.04 0.04 0.04 0.04 0.02 0.05 0.05 0.06 0.10 0.10 0.51 0.09 0.24 0.61 0.22 0.15 0.21 0.26 0.10 0.21 0.32 0.53 0.25 0.36 0.36 0.58 0.16 0.26 0.31 0.24 0.29 0.32 0.36 0.38 0.45 0.29 0.32 0.37 0.39 0.47 0.61 0.58 0.39 0.30 0.37 0.48
0.26 0.17 0.06 0.24 0.77 0.59 1.22 1.47 1.10 1.53 1.58 1.42 1.28 1.32 1.06 1.35 0.59 0.29 0.38 0.07 0.12 0.06 0.02 0.03 0.01 0.00 0.00 0.00 0.00 0.00 0.00 0.00 0.00 0.00 0.00 0.00 0.00 0.00 0.01 0.01 0.00 0.01 0.00 0.02 0.00 0.01 0.01 0.03 0.02 0.05 0.03 0.03 0.02 0.03 0.02 0.02 0.02 0.03 0.08 0.04 0.14 0.17 0.40 0.21 0.10 0.09 0.07 0.08 0.04 0.10 0.09 0.11 0.16 0.17 0.18 0.20 0.17 0.31 0.15 0.25 0.37 0.26 0.43 0.57 0.34 0.85 0.61 0.59 0.41 0.69 0.49 0.60 0.41 0.48 0.45 0.29 0.25
0.25 0.49 0.09 0.19 0.17 0.46 1.08 1.39 1.08 1.69 1.33 1.62 0.88 1.30 0.97 1.25 0.63 0.24 0.16 0.12 0.04 0.08 0.04 0.03 0.03 0.01 0.01 0.00 0.01 0.01 0.00 0.00 0.00 0.00 0.00 0.00 0.00 0.00 0.02 0.00 0.01 0.01 0.00 0.01 0.00 0.00 0.01 0.01 0.02 0.02 0.02 0.03 0.03 0.03 0.02 0.02 0.03 0.11 0.04 0.04 0.36 0.20 0.28 0.32 0.23 0.02 0.03 0.02 0.02 0.12 0.16 0.04 0.13 0.26 0.21 0.22 0.10 0.22 0.18 0.21 0.47 0.29 0.42 0.40 0.30 0.37 0.54 0.40 0.44 0.69 0.93 0.60 0.59 0.26 0.23 0.20 0.20
0.11 0.19 0.28 0.66 0.02 0.40 1.02 1.08 0.90 1.34 0.99 1.24 0.68 1.00 0.79 0.79 0.68 0.50 0.28 0.10 0.05 0.26 0.13 0.10 0.01 0.01 0.01 0.02 0.02 0.03 0.03 0.00 0.00 0.00 0.00 0.00 0.00 0.00 0.01 0.00 0.00 0.00 0.00 0.02 0.02 0.01 0.00 0.04 0.04 0.01 0.01 0.01 0.03 0.01 0.01 0.01 0.03 0.05 0.03 0.06 0.03 0.13 0.10 0.15 0.57 0.10 0.08 0.04 0.05 0.12 0.13 0.08 0.09 0.29 0.24 0.20 0.23 0.24 0.35 0.27 0.54 0.58 0.26 0.26 0.29 0.29 0.30 0.36 0.30 0.37 0.48 0.59 0.34 0.17 0.13 0.08 0.02
0.08 0.05 0.05 0.08 0.07 0.15 0.65 1.06 1.33 1.36 0.68 1.26 1.21 1.41 0.87 1.16 0.68 0.55 0.19 0.37 0.06 0.09 0.19 0.08 0.03 0.01 0.00 0.00 0.03 0.03 0.02 0.02 0.00 0.00 0.00 0.02 0.00 0.00 0.02 0.00 0.00 0.00 0.03 0.02 0.02 0.01 0.01 0.01 0.02 0.01 0.01 0.00 0.03 0.01 0.01 0.01 0.04 0.03 0.03 0.04 0.07 0.29 0.17 0.09 0.06 0.06 0.05 0.07 0.04 0.02 0.11 0.12 0.07 0.20 0.22 0.26 0.25 0.34 0.38 0.33 0.28 0.23 0.37 0.26 0.24 0.26 0.39 0.26 0.36 0.34 0.48 0.53 0.21 0.34 0.09 0.05 0.14
0.07 0.00 0.20 0.11 0.04 0.09 0.25 0.48 0.82 1.15 0.80 1.04 0.67 1.05 0.63 0.42 0.25 0.32 0.34 0.16 0.17 0.03 0.07 0.08 0.04 0.03 0.02 0.02 0.01 0.01 0.05 0.05 0.04 0.02 0.02 0.01 0.01 0.02 0.01 0.02 0.03 0.05 0.00 0.02 0.01 0.00 0.00 0.00 0.00 0.00 0.00 0.01 0.01 0.02 0.01 0.01 0.07 0.02 0.02 0.16 0.04 0.05 0.06 0.05 0.04 0.06 0.05 0.05 0.18 0.27 0.12 0.14 0.14 0.15 0.32 0.44 0.40 0.20 0.16 0.35 0.22 0.18 0.23 0.18 0.25 0.34 0.42 0.28 0.15 0.27 0.51 0.33 0.15 0.16 0.13 0.03 0.01
0.08 0.02 0.04 0.07 0.20 0.03 0.28 0.14 0.47 0.60 1.05 0.94 0.76 0.93 0.98 0.80 0.52 0.61 0.50 0.62 0.20 0.19 0.10 0.06 0.08 0.08 0.03 0.03 0.01 0.04 0.04 0.04 0.05 0.02 0.02 0.01 0.00 0.01 0.01 0.01 0.01 0.00 0.00 0.00 0.00 0.00 0.00 0.00 0.00 0.00 0.00 0.00 0.01 0.00 0.01 0.02 0.02 0.04 0.03 0.13 0.09 0.06 0.09 0.04 0.03 0.08 0.04 0.11 0.15 0.13 0.09 0.13 0.17 0.18 0.16 0.16 0.13 0.19 0.15 0.30 0.27 0.19 0.19 0.18 0.19 0.30 0.33 0.29 0.16 0.17 0.23 0.18 0.08 0.13 0.09 0.03 0.04
0.02 0.10 0.34 0.50 0.26 0.68 0.39 0.09 0.60 0.30 0.58 0.99 1.08 0.89 1.01 0.86 0.71 0.76 0.51 0.40 0.34 0.64 0.15 0.27 0.22 0.37 0.11 0.08 0.04 0.03 0.06 0.06 0.01 0.07 0.02 0.00 0.01 0.01 0.01 0.00 0.00 0.01 0.01 0.00 0.01 0.00 0.00 0.00 0.00 0.00 0.00 0.01 0.00 0.01 0.01 0.01 0.03 0.07 0.04 0.07 0.06 0.09 0.05 0.12 0.05 0.02 0.14 0.30 0.13 0.10 0.08 0.15 0.08 0.09 0.10 0.10 0.09 0.11 0.16 0.26 0.27 0.22 0.21 0.26 0.26 0.45 0.26 0.36 0.25 0.19 0.17 0.19 0.17 0.13 0.11 0.10 0.08
0.00 0.07 0.07 0.23 0.17 0.05 0.36 0.22 0.15 0.53 0.64 0.54 1.26 1.00 1.17 1.11 0.66 1.07 0.51 0.30 0.37 0.41 0.66 0.41 0.22 0.33 0.36 0.31 0.12 0.06 0.07 0.05 0.02 0.03 0.04 0.01 0.01 0.00 0.00 0.00 0.01 0.01 0.00 0.00 0.00 0.00 0.00 0.00 0.00 0.01 0.01 0.01 0.02 0.02 0.03 0.05 0.07 0.05 0.03 0.03 0.08 0.06 0.07 0.08 0.04 0.07 0.14 0.19 0.13 0.06 0.09 0.08 0.10 0.14 0.13 0.09 0.05 0.11 0.24 0.27 0.28 0.15 0.17 0.24 0.19 0.15 0.43 0.27 0.22 0.16 0.17 0.15 0.16 0.08 0.04 0.03 0.02
0.01 0.03 0.06 0.14 0.03 0.09 0.22 0.11 0.64 1.39 1.07 1.21 1.17 0.94 1.28 1.02 0.70 1.10 0.75 0.68 0.47 0.32 0.28 0.71 0.51 0.21 0.17 0.22 0.43 0.25 0.07 0.02 0.03 0.03 0.02 0.05 0.04 0.00 0.00 0.00 0.00 0.00 0.00 0.00 0.00 0.00 0.00 0.01 0.01 0.01 0.02 0.00 0.00 0.02 0.05 0.02 0.03 0.06 0.03 0.05 0.04 0.04 0.09 0.09 0.04 0.05 0.07 0.08 0.06 0.07 0.09 0.12 0.11 0.09 0.13 0.18 0.17 0.22 0.25 0.18 0.11 0.22 0.14 0.26 0.27 0.21 0.32 0.26 0.15 0.18 0.11 0.30 0.20 0.09 0.03 0.02 0.01
0.00 0.02 0.07 0.09 0.23 0.36 0.49 0.58 0.74 1.06 0.62 1.05 1.37 1.03 1.44 1.02 0.91 1.14 0.95 0.53 0.63 0.90 0.57 0.99 0.30 0.41 0.26 0.15 0.17 0.38 0.05 0.05 0.02 0.05 0.06 0.01 0.00 0.01 0.01 0.00 0.00 0.00 0.00 0.00 0.00 0.00 0.00 0.00 0.00 0.00 0.00 0.01 0.02 0.02 0.01 0.03 0.03 0.02 0.01 0.01 0.02 0.01 0.02 0.01 0.03 0.06 0.03 0.02 0.02 0.03 0.07 0.07 0.04 0.07 0.04 0.08 0.14 0.20 0.16 0.15 0.12 0.17 0.14 0.21 0.12 0.26 0.19 0.22 0.31 0.19 0.24 0.13 0.07 0.08 0.02 0.01 0.02
0.01 0.00 0.01 0.10 0.25 0.07 0.14 0.29 0.46 0.87 0.83 0.52 0.70 0.87 1.32 1.30 0.93 0.82 1.37 0.44 0.66 0.51 0.47 0.38 0.73 0.46 0.41 0.21 0.10 0.09 0.06 0.04 0.06 0.02 0.03 0.02 0.04 0.00 0.00 0.00 0.00 0.00 0.00 0.00 0.00 0.00 0.00 0.00 0.00 0.00 0.00 0.02 0.01 0.01 0.03 0.01 0.00 0.00 0.00 0.01 0.02 0.01 0.04 0.01 0.01 0.02 0.06 0.03 0.03 0.02 0.08 0.09 0.06 0.08 0.11 0.15 0.11 0.11 0.07 0.17 0.19 0.17 0.16 0.17 0.20 0.19 0.15 0.22 0.23 0.24 0.24 0.19 0.08 0.07 0.05 0.03 0.05
0.00 0.00 0.01 0.06 0.06 0.08 0.05 0.13 0.40 0.58 0.54 0.48 0.54 0.67 1.53 1.51 1.05 0.80 0.89 0.72 0.30 0.36 0.32 0.23 0.45 0.65 0.63 0.30 0.11 0.06 0.10 0.11 0.08 0.05 0.02 0.01 0.00 0.00 0.00 0.00 0.00 0.00 0.00 0.00 0.00 0.00 0.01 0.00 0.00 0.00 0.00 0.00 0.00 0.00 0.00 0.00 0.02 0.01 0.02 0.02 0.03 0.01 0.01 0.02 0.02 0.04 0.02 0.03 0.03 0.02 0.08 0.07 0.10 0.08 0.09 0.16 0.06 0.05 0.05 0.08 0.10 0.09 0.13 0.14 0.17 0.15 0.22 0.22 0.28 0.23 0.25 0.12 0.20 0.16 0.09 0.05 0.03
0.00 0.00 0.01 0.01 0.02 0.01 0.03 0.03 0.04 0.20 0.51 0.53 0.43 0.49 1.04 1.14 1.02 0.73 1.10 0.83 0.40 0.28 0.20 0.15 0.55 0.68 0.31 0.49 0.27 0.11 0.06 0.03 0.01 0.03 0.03 0.02 0.02 0.01 0.00 0.00 0.00 0.00 0.00 0.00 0.00 0.00 0.00 0.00 0.00 0.00 0.00 0.00 0.00 0.00 0.00 0.00 0.00 0.00 0.03 0.03 0.03 0.02 0.02 0.01 0.01 0.00 0.01 0.02 0.06 0.01 0.06 0.14 0.13 0.10 0.02 0.04 0.07 0.04 0.07 0.06 0.09 0.09 0.14 0.10 0.11 0.20 0.27 0.20 0.20 0.17 0.22 0.19 0.18 0.12 0.07 0.11 0.04
0.00 0.01 0.00 0.00 0.00 0.00 0.03 0.01 0.00 0.10 0.19 0.30 0.32 0.25 0.63 1.21 1.16 1.06 1.17 1.00 0.49 0.25 0.31 0.11 0.22 0.35 0.37 0.25 0.16 0.12 0.11 0.09 0.02 0.01 0.02 0.09 0.04 0.02 0.04 0.00 0.00 0.00 0.00 0.00 0.00 0.00 0.00 0.00 0.00 0.00 0.00 0.00 0.00 0.00 0.00 0.00 0.00 0.01 0.00 0.01 0.02 0.01 0.01 0.00 0.00 0.00 0.00 0.01 0.02 0.01 0.01 0.01 0.01 0.02 0.02 0.02 0.02 0.03 0.04 0.10 0.11 0.04 0.10 0.14 0.11 0.10 0.13 0.19 0.26 0.19 0.15 0.14 0.20 0.21 0.15 0.10 0.04
0.01 0.00 0.00 0.00 0.00 0.01 0.02 0.03 0.00 0.02 0.09 0.13 0.33 0.16 0.62 0.81 0.66 0.97 1.27 1.28 0.88 0.31 0.31 0.39 0.64 0.48 0.22 0.40 0.15 0.12 0.14 0.09 0.03 0.02 0.02 0.01 0.03 0.01 0.00 0.00 0.00 0.00 0.00 0.00 0.00 0.00 0.00 0.00 0.00 0.00 0.00 0.00 0.00 0.00 0.00 0.00 0.00 0.00 0.00 0.00 0.00 0.00 0.00 0.00 0.00 0.00 0.00 0.01 0.03 0.04 0.01 0.01 0.01 0.01 0.02 0.01 0.03 0.04 0.05 0.03 0.07 0.06 0.05 0.08 0.08 0.15 0.12 0.17 0.23 0.14 0.15 0.16 0.23 0.10 0.11 0.07 0.04
0.00 0.00 0.00 0.00 0.00 0.01 0.00 0.01 0.01 0.01 0.01 0.13 0.32 0.14 0.22 0.50 0.61 0.71 0.93 1.07 0.95 0.56 0.34 0.28 0.59 0.59 0.44 0.25 0.21 0.12 0.15 0.21 0.08 0.03 0.01 0.01 0.00 0.01 0.01 0.00 0.00 0.01 0.00 0.00 0.00 0.00 0.00 0.00 0.00 0.00 0.00 0.00 0.00 0.00 0.00 0.00 0.00 0.00 0.00 0.00 0.00 0.00 0.01 0.01 0.00 0.00 0.00 0.01 0.03 0.01 0.01 0.01 0.01 0.02 0.02 0.03 0.04 0.02 0.03 0.04 0.04 0.04 0.06 0.08 0.06 0.12 0.06 0.10 0.11 0.13 0.12 0.14 0.11 0.10 0.08 0.06 0.06
0.00 0.00 0.00 0.00 0.01 0.01 0.01 0.09 0.11 0.40 0.04 0.06 0.09 0.14 0.14 0.21 0.63 0.51 0.72 0.92 0.86 0.62 0.37 0.26 0.29 0.58 0.32 0.23 0.12 0.18 0.17 0.22 0.20 0.04 0.05 0.02 0.02 0.01 0.02 0.02 0.01 0.00 0.00 0.00 0.00 0.00 0.00 0.00 0.00 0.00 0.00 0.00 0.00 0.00 0.00 0.00 0.00 0.00 0.00 0.00 0.00 0.00 0.00 0.00 0.00 0.00 0.01 0.01 0.01 0.01 0.02 0.01 0.01 0.02 0.03 0.02 0.01 0.01 0.02 0.07 0.05 0.05 0.05 0.07 0.03 0.06 0.07 0.06 0.06 0.05 0.08 0.05 0.06 0.11 0.08 0.03 0.05
0.00 0.00 0.00 0.01 0.01 0.09 0.03 0.02 0.04 0.09 0.01 0.00 0.03 0.07 0.03 0.22 0.35 0.51 0.41 1.02 1.02 1.05 0.26 0.31 0.52 0.43 0.13 0.14 0.18 0.24 0.17 0.12 0.29 0.32 0.13 0.08 0.06 0.02 0.00 0.01 0.00 0.01 0.00 0.00 0.00 0.00 0.00 0.00 0.00 0.00 0.00 0.00 0.00 0.00 0.00 0.00 0.00 0.00 0.00 0.00 0.00 0.00 0.00 0.00 0.00 0.00 0.00 0.00 0.01 0.02 0.02 0.02 0.01 0.01 0.00 0.01 0.01 0.00 0.02 0.01 0.02 0.04 0.03 0.02 0.02 0.08 0.03 0.03 0.03 0.03 0.04 0.02 0.03 0.04 0.08 0.05 0.07
0.00 0.00 0.00 0.00 0.08 0.24 0.17 0.23 0.04 0.10 0.01 0.00 0.01 0.02 0.04 0.12 0.22 0.21 0.03 0.25 0.63 0.63 0.53 0.23 0.31 0.28 0.07 0.08 0.15 0.20 0.18 0.18 0.12 0.13 0.38 0.11 0.10 0.17 0.04 0.02 0.01 0.01 0.00 0.00 0.00 0.00 0.00 0.00 0.00 0.00 0.00 0.00 0.00 0.00 0.00 0.00 0.00 0.00 0.00 0.00 0.00 0.00 0.00 0.00 0.00 0.00 0.00 0.00 0.00 0.01 0.01 0.01 0.02 0.01 0.01 0.00 0.01 0.00 0.00 0.01 0.01 0.03 0.05 0.04 0.02 0.02 0.02 0.03 0.02 0.05 0.03 0.03 0.04 0.03 0.03 0.05 0.11
0.00 0.00 0.00 0.00 0.14 0.36 0.13 0.60 0.36 0.02 0.02 0.01 0.01 0.01 0.04 0.07 0.03 0.02 0.02 0.05 0.42 0.70 0.54 0.52 0.21 0.12 0.14 0.13 0.16 0.39 0.45 0.22 0.14 0.08 0.45 0.19 0.08 0.08 0.07 0.03 0.03 0.00 0.00 0.00 0.00 0.00 0.00 0.00 0.00 0.00 0.00 0.00 0.00 0.00 0.00 0.00 0.00 0.00 0.00 0.00 0.00 0.00 0.00 0.00 0.00 0.00 0.00 0.01 0.00 0.00 0.00 0.00 0.00 0.01 0.00 0.00 0.00 0.00 0.00 0.00 0.00 0.01 0.01 0.01 0.01 0.02 0.03 0.01 0.08 0.02 0.03 0.02 0.02 0.02 0.03 0.05 0.04
0.00 0.00 0.00 0.00 0.00 0.01 0.05 0.11 0.15 0.01 0.00 0.00 0.00 0.02 0.04 0.05 0.09 0.07 0.04 0.03 0.16 0.28 0.50 0.27 0.12 0.15 0.25 0.37 0.09 0.40 1.05 1.01 0.29 0.09 0.24 0.08 0.13 0.06 0.08 0.05 0.02 0.01 0.00 0.00 0.00 0.00 0.00 0.01 0.00 0.00 0.00 0.00 0.00 0.00 0.00 0.00 0.00 0.00 0.00 0.00 0.00 0.00 0.00 0.00 0.00 0.00 0.00 0.00 0.00 0.00 0.00 0.01 0.00 0.00 0.00 0.00 0.00 0.00 0.01 0.00 0.00 0.00 0.01 0.01 0.02 0.03 0.03 0.01 0.02 0.03 0.02 0.02 0.02 0.02 0.02 0.02 0.02
0.00 0.00 0.00 0.00 0.00 0.00 0.00 0.00 0.01 0.01 0.02 0.01 0.01 0.01 0.09 0.02 0.16 0.02 0.01 0.06 0.04 0.07 0.26 0.47 0.34 0.31 0.45 0.46 0.71 0.74 1.12 1.56 0.89 0.09 0.09 0.07 0.04 0.06 0.05 0.05 0.02 0.02 0.02 0.00 0.00 0.00 0.00 0.00 0.00 0.00 0.00 0.00 0.00 0.00 0.00 0.00 0.00 0.00 0.00 0.00 0.00 0.00 0.00 0.00 0.00 0.00 0.00 0.00 0.00 0.00 0.00 0.00 0.00 0.00 0.00 0.00 0.00 0.00 0.00 0.00 0.00 0.00 0.00 0.01 0.01 0.02 0.02 0.02 0.02 0.02 0.04 0.02 0.05 0.02 0.01 0.02 0.06
0.00 0.00 0.00 0.00 0.00 0.00 0.00 0.00 0.00 0.01 0.01 0.01 0.04 0.05 0.14 0.11 0.02 0.09 0.00 0.01 0.06 0.18 0.11 0.38 0.31 0.36 0.29 0.32 1.01 0.81 0.42 0.49 1.03 0.85 0.48 0.19 0.10 0.09 0.05 0.07 0.04 0.04 0.01 0.06 0.00 0.00 0.00 0.00 0.01 0.00 0.00 0.00 0.00 0.00 0.00 0.00 0.00 0.00 0.00 0.00 0.00 0.00 0.00 0.00 0.00 0.00 0.00 0.00 0.00 0.00 0.00 0.00 0.00 0.00 0.00 0.00 0.00 0.00 0.00 0.00 0.00 0.01 0.01 0.00 0.01 0.01 0.01 0.02 0.02 0.02 0.03 0.03 0.03 0.05 0.02 0.02 0.03
0.00 0.00 0.00 0.00 0.00 0.00 0.00 0.00 0.00 0.01 0.00 0.03 0.02 0.02 0.15 0.01 0.17 0.82 0.51 0.08 0.02 0.04 0.02 0.09 0.15 0.21 0.16 0.49 0.70 0.67 0.41 0.63 0.79 0.90 0.57 0.27 0.28 0.20 0.13 0.06 0.09 0.04 0.03 0.03 0.01 0.02 0.01 0.00 0.02 0.07 0.07 0.01 0.00 0.00 0.00 0.00 0.00 0.00 0.00 0.00 0.00 0.00 0.00 0.00 0.00 0.00 0.00 0.00 0.00 0.00 0.00 0.00 0.00 0.00 0.00 0.00 0.00 0.00 0.00 0.00 0.00 0.01 0.00 0.00 0.00 0.01 0.01 0.01 0.04 0.02 0.03 0.02 0.02 0.02 0.02 0.02 0.02
0.00 0.00 0.00 0.00 0.00 0.00 0.00 0.01 0.00 0.00 0.02 0.03 0.01 0.03 0.03 0.01 0.17 0.13 0.19 0.09 0.06 0.13 0.04 0.03 0.10 0.15 0.21 0.23 0.19 0.22 0.25 0.60 0.76 1.00 1.00 0.81 0.85 0.89 0.50 0.38 0.18 0.11 0.03 0.08 0.04 0.02 0.01 0.04 0.01 0.03 0.03 0.05 0.04 0.00 0.00 0.00 0.00 0.00 0.00 0.00 0.00 0.00 0.00 0.00 0.00 0.00 0.00 0.00 0.00 0.00 0.00 0.00 0.00 0.00 0.00 0.00 0.00 0.00 0.00 0.00 0.00 0.01 0.00 0.00 0.00 0.01 0.01 0.01 0.03 0.02 0.02 0.04 0.02 0.02 0.02 0.02 0.01
0.00 0.00 0.00 0.01 0.02 0.00 0.00 0.00 0.00 0.00 0.00 0.02 0.05 0.08 0.01 0.03 0.10 0.07 0.07 0.25 0.46 0.57 0.27 0.10 0.07 0.15 0.16 0.12 0.26 0.29 0.21 0.33 0.34 0.45 0.35 0.28 0.31 0.35 0.22 0.68 0.70 0.53 0.45 0.39 0.07 0.03 0.06 0.13 0.06 0.02 0.01 0.09 0.05 0.07 0.01 0.00 0.00 0.00 0.00 0.00 0.00 0.00 0.00 0.00 0.00 0.00 0.00 0.00 0.00 0.00 0.00 0.00 0.00 0.00 0.00 0.00 0.00 0.00 0.00 0.00 0.00 0.00 0.00 0.00 0.01 0.00 0.00 0.01 0.01 0.01 0.01 0.07 0.05 0.03 0.04 0.05 0.04
0.00 0.00 0.00 0.00 0.00 0.00 0.00 0.00 0.04 0.00 0.01 0.00 0.44 0.26 0.23 0.31 0.09 0.08 0.08 0.32 0.33 0.10 0.10 0.07 0.10 0.10 0.18 0.14 0.13 0.15 0.15 0.18 0.19 0.30 0.35 0.42 0.38 0.27 0.65 0.38 0.81 0.99 0.37 0.15 0.15 0.34 0.36 0.30 0.28 0.27 0.30 0.11 0.06 0.11 0.01 0.00 0.00 0.00 0.00 0.00 0.00 0.00 0.00 0.00 0.00 0.00 0.00 0.00 0.00 0.00 0.00 0.00 0.00 0.00 0.00 0.00 0.00 0.00 0.00 0.00 0.00 0.00 0.00 0.00 0.00 0.01 0.00 0.01 0.01 0.01 0.03 0.02 0.02 0.02 0.03 0.03 0.04
0.00 0.01 0.00 0.00 0.00 0.00 0.00 0.00 0.00 0.01 0.01 0.00 0.03 0.08 0.14 0.19 0.77 0.66 0.56 0.57 0.30 0.10 0.04 0.03 0.17 0.27 0.28 0.19 0.13 0.21 0.32 0.10 0.11 0.10 0.14 0.29 0.28 0.21 0.21 0.65 0.57 0.70 0.72 0.34 0.24 0.53 0.35 0.24 0.28 0.25 0.09 0.13 0.15 0.10 0.28 0.08 0.01 0.00 0.00 0.00 0.00 0.00 0.00 0.00 0.00 0.00 0.00 0.00 0.00 0.00 0.00 0.00 0.00 0.00 0.00 0.00 0.00 0.00 0.00 0.00 0.00 0.02 0.02 0.01 0.01 0.02 0.00 0.00 0.01 0.02 0.01 0.01 0.01 0.02 0.02 0.02 0.02
0.00 0.00 0.00 0.00 0.00 0.00 0.00 0.01 0.00 0.00 0.00 0.01 0.03 0.06 0.03 0.03 0.07 0.13 0.47 0.19 0.17 0.07 0.02 0.08 0.45 0.35 0.65 0.44 0.34 0.17 0.15 0.14 0.06 0.05 0.11 0.11 0.23 0.22 0.34 0.40 0.38 0.54 0.56 0.37 0.28 0.21 0.34 0.61 1.09 1.10 1.11 1.09 1.04 0.27 0.12 0.18 0.35 0.04 0.00 0.00 0.00 0.00 0.00 0.00 0.00 0.00 0.00 0.00 0.00 0.00 0.00 0.00 0.00 0.00 0.00 0.00 0.02 0.03 0.04 0.01 0.00 0.00 0.00 0.01 0.02 0.02 0.03 0.01 0.01 0.01 0.02 0.01 0.02 0.02 0.02 0.01 0.02